Regional Weather Roundup
Issued by NWS Huntsville, AL

Home | Current Version | Previous Version | Text Only | Print | Product List | Glossary On
Versions: 1 2 3 4 5 6 7 8 9 10 11 12 13 14 15 16 17 18 19 20 21 22 23 24 25 26 27 28 29 30 31 32 33 34 35 36 37 38 39 40 41 42 43 44 45 46 47 48 49 50
000
ASUS44 KHUN 161610
RWRHUN

WEATHER ROUNDUP FOR THE TENNESSEE VALLEY
NATIONAL WEATHER SERVICE HUNTSVILLE AL
1000 AM CST MON JAN 16 2017

ALZ001>004-161700-
NORTHWEST ALABAMA

CITY           SKY/WX    TMP DP  RH WIND       PRES   REMARKS
COURTLAND HCN    N/A     63 N/A N/A CALM        N/A
RUSSELLVILLE     N/A     63 N/A N/A MISG        N/A
SHOALS AIRPORT MOSUNNY   65  53  65 SE6       30.25S
SHOALS TVA RES   N/A     63 N/A N/A MISG        N/A
$$

ALZ005>007-016-161700-
NORTH CENTRAL ALABAMA

CITY           SKY/WX    TMP DP  RH WIND       PRES   REMARKS
CULLMAN AG STN   N/A     61 N/A N/A E5          N/A
DECATUR AP     CLOUDY    62  54  74 SE6       30.26S
HUNTSVILLE AP  CLOUDY    62  54  74 E5        30.26R
MERIDIANVILLE  CLOUDY    61  50  67 SE7       30.27R
REDSTONE ARSN  CLOUDY    62  52  69 S10       30.25R
$$

ALZ008>010-161700-
NORTHEAST ALABAMA

CITY           SKY/WX    TMP DP  RH WIND       PRES   REMARKS
ALBERTVILLE    CLOUDY   N/A N/A N/A CALM      30.28S
FORT PAYNE     CLOUDY    61  48  63 MISG      30.30R
SCOTTSBORO AP  CLOUDY    55  55 100 N3        30.31R
SCOTTSBORO HCN   N/A     54 N/A N/A MISG        N/A
VALLEY HEAD      N/A     61 N/A N/A MISG        N/A
$$

TNZ076-096-097-161700-
SOUTHEASTERN MIDDLE TENNESSEE

CITY           SKY/WX    TMP DP  RH WIND       PRES   REMARKS
TULLAHOMA      NOT AVBL
$$

...SURROUNDING SITES...

CITY           SKY/WX    TMP DP  RH WIND       PRES   REMARKS
ATLANTA        CLOUDY    60  54  80 E6        30.33R
ANNISTON       PTSUNNY   65  53  65 NE5       30.30R
BIRMINGHAM     CLOUDY    63  53  70 SE9       30.29R
CHATTANOOGA    CLOUDY    56  52  86 CALM      30.32S
DALTON         CLOUDY    54  52  94 CALM      30.31F
GADSDEN        CLOUDY    59  51  75 E5        30.31R
GOLDEN TRNGL   MOSUNNY   66  54  63 S12       30.18R
HALEYVILLE     PTSUNNY   62  53  72 SE8       30.28R
JACKSON TN     CLOUDY    64  56  75 S8        30.17S
MEMPHIS        CLOUDY    61  59  93 S14       30.14F
NASHVILLE      CLOUDY    58  52  80 S3        30.25S
OXFORD MS      CLOUDY    59  55  88 S10       30.20S
ROME           CLOUDY    58  50  75 CALM      30.31R
TUPELO         MOSUNNY   62  56  80 SE7       30.21R
TUSCALOOSA     PTSUNNY   65  53  65 SE8       30.26R
$$

...GULF COAST WEATHER...

CITY           SKY/WX    TMP DP  RH WIND       PRES   REMARKS
GULFPORT       MOSUNNY   73  65  75 SE13      30.21R
PASCAGOULA     SUNNY     74  62  66 SE8       30.23R
MOBILE         PTSUNNY   74  63  68 S14       30.24R
GULF SHORES    MOSUNNY   74  67  78 SE10G22   30.24R
PENSACOLA      SUNNY     73  65  75 SE12      30.23R
DESTIN         SUNNY     69  62  78 SE13      30.25R
PANAMA CITY    SUNNY     73  63  68 E9        30.27S
APPALACHICOLA  PTSUNNY   69  63  81 SE9       30.28R
$$




USA.gov is the U.S. government's official web portal to all federal, state and local government web resources and services.